Find Kosmos-1235

NORAD ID: 12114 Int'l Des: 1980-102 Owner: GUKOSR Country: SU operational
LEOCIRCULAR

Live Position

Loading 3D Globe...

About Kosmos-1235

Description loading...

Upcoming Passes

Passes for default location (London). Set your location on the main map for personalized predictions.

Altitude History

Loading altitude history...

Two-Line Element Set

1 12114U 80102H 26104.02353273 .00000015 00000-0 18801-3 0 9995
2 12114 73.9903 113.7653 0032814 198.0556 191.5862 12.56233791 77533
Epoch: Apr 14, 2026 • Age: 14 hours

Current Status

Altitude 1433.1 km
Velocity 7.15 km/s
Sub-Earth Point -44.86°S, 118.17°W
Launch Date Dec 23, 1980
Age 45.3 years
Type other

Technical Details

Classification Payload
Mass 60.00 kg
Dry Mass 60.00 kg
Total Mass 60.00 kg
Length 0.80 m
Diameter 0.80 m
Span 0.80 m
Shape Poly
Manufacturer NPOPM
Bus Type Strela-1 11F625
Phase Status In Orbit
Owner/State GUKOSR/SU

Most Searched